Theta_e
350 351 353 355 356 357 357 357 359 359 358 357 353 351 352 353 353 353 351 350 352 355 355 356 357 357 358 356 356 356 355 353 351 351 352 352 353 352 349 348 346 340 340 340 340 341 340 339 339 338 339 339 339 339 339 342 344 343 343 341 337 336 333 334 341 346 345 342 339 335 335 338 337 335 338 340 343 347 347 345 346 348 348 348 348
351 353 353 355 354 355 357 358 358 359 358 357 355 353 351 352 353 355 354 352 351 352 352 353 354 355 356 355 354 354 354 352 352 351 350 349 350 348 344 344 343 340 339 338 338 339 339 339 339 340 340 340 340 340 340 340 339 340 341 340 339 339 336 334 341 347 347 345 344 341 339 338 336 335 338 337 339 345 347 346 345 345 346 347 348
352 352 352 353 353 354 356 357 357 359 359 357 355 353 351 351 353 355 353 352 352 350 349 350 350 351 351 350 349 348 349 348 345 343 341 342 344 342 339 340 340 340 340 338 336 336 337 336 337 338 338 339 340 340 340 340 340 341 341 339 340 340 339 340 342 345 346 346 346 344 342 341 339 338 339 337 340 345 346 346 345 344 345 346 348
351 351 350 350 351 352 354 356 356 358 360 359 356 352 351 352 353 352 349 348 349 350 349 348 345 344 341 338 336 336 337 338 339 338 338 340 340 339 339 341 343 340 335 333 332 332 333 333 334 334 334 336 339 339 338 339 340 342 341 340 341 341 341 343 343 343 344 345 345 344 343 343 343 341 340 339 342 346 345 344 344 345 344 344 347
350 348 347 348 350 352 354 356 356 356 358 359 357 353 352 351 349 346 344 343 342 342 340 337 334 335 335 332 335 337 338 339 341 341 340 338 337 336 337 340 338 331 328 329 330 331 331 332 333 333 333 335 337 338 338 338 339 341 342 341 343 342 341 343 346 344 342 344 344 342 343 343 344 342 342 342 344 345 344 344 345 344 344 344 346
348 346 345 347 350 352 355 355 355 355 356 356 356 354 351 346 341 338 336 335 333 329 325 326 328 331 335 338 340 341 340 339 340 339 337 336 335 336 338 338 336 332 332 333 331 330 330 332 333 333 333 334 335 336 337 338 338 338 339 340 342 344 341 340 343 342 342 343 342 342 342 342 343 343 343 344 343 342 343 344 344 344 344 344 345
347 347 347 348 351 353 355 356 355 353 354 355 355 352 346 339 333 329 328 327 325 322 319 323 328 329 331 333 334 334 337 338 338 338 337 337 337 338 339 339 339 336 334 333 331 330 331 332 333 334 335 336 337 337 337 338 338 338 339 339 341 342 339 338 339 339 342 344 342 342 343 343 343 343 343 344 342 342 344 343 342 342 344 344 342
348 348 348 350 352 354 355 356 354 352 353 355 354 348 338 331 328 326 326 324 322 322 321 323 328 329 327 329 331 334 338 339 337 338 339 339 339 339 339 338 338 336 334 332 330 329 331 333 335 336 337 337 337 338 338 339 339 338 338 337 336 337 337 337 337 338 341 342 342 342 343 344 343 342 343 343 343 343 342 341 341 341 343 344 343
349 349 349 350 352 354 356 356 353 353 354 354 352 342 331 329 328 325 325 325 323 324 325 325 327 329 329 331 333 335 338 338 337 338 338 339 339 338 338 337 338 337 336 335 333 330 331 333 335 336 336 337 337 337 338 339 337 336 337 336 334 334 335 337 337 339 340 341 342 342 342 341 341 341 342 342 342 342 340 339 341 341 342 343 342
349 350 350 352 352 353 355 356 354 354 355 353 348 338 330 331 330 327 327 326 326 326 327 328 328 329 333 334 333 336 338 338 339 339 339 339 338 337 338 337 337 337 336 337 336 333 331 330 332 334 336 337 336 335 335 336 335 337 339 338 336 336 335 337 338 339 340 340 341 341 340 340 341 341 342 341 341 342 341 341 341 340 341 341 340
349 349 350 352 352 352 354 356 356 356 356 351 344 336 333 334 331 329 329 328 328 328 328 330 329 330 333 333 333 336 336 335 338 340 340 340 339 338 338 336 336 337 336 336 336 336 334 330 330 333 335 336 335 333 332 332 335 338 338 335 334 335 335 336 337 336 338 339 339 340 340 339 341 342 342 342 341 341 342 342 340 340 341 340 340
350 349 351 351 353 353 355 357 358 357 353 348 341 337 335 335 332 331 330 329 330 330 330 331 332 334 335 334 334 332 328 328 332 334 336 338 337 336 335 334 336 337 336 336 336 336 333 329 330 334 334 334 333 332 331 330 332 334 333 330 330 331 333 335 335 334 336 337 339 341 341 339 339 340 340 341 342 341 342 342 340 339 341 340 339
351 350 351 352 353 353 356 359 358 354 348 342 340 340 338 335 333 332 330 331 331 331 332 332 334 337 337 334 332 326 320 320 323 329 335 336 333 333 332 333 335 335 336 336 334 332 330 328 331 334 334 332 330 330 329 329 330 330 329 328 328 329 331 333 333 332 334 335 336 338 338 338 339 339 339 339 340 341 341 341 340 340 341 341 340
348 347 349 351 354 354 359 360 356 350 343 338 339 343 339 334 334 333 331 331 331 331 333 335 336 336 334 332 328 324 321 321 324 330 335 335 333 333 332 332 334 335 336 333 330 328 327 328 330 332 333 332 330 330 330 330 330 330 329 329 329 330 330 331 331 331 332 334 335 335 336 336 336 338 338 338 338 339 341 340 340 341 341 341 341
346 343 346 350 355 357 360 358 352 346 340 336 339 341 337 334 334 332 331 331 330 332 333 335 336 335 332 330 327 324 321 321 326 331 334 334 335 334 331 330 333 333 331 328 326 326 326 328 329 330 331 331 330 330 330 331 332 331 331 329 329 330 331 331 331 331 332 334 334 335 336 335 334 336 338 338 337 338 340 340 339 341 341 341 341
347 343 343 351 357 359 359 356 352 346 339 337 339 336 333 335 334 330 331 331 331 332 332 332 333 332 330 329 326 325 324 325 330 333 335 335 335 334 332 332 332 329 327 326 326 326 327 328 329 330 330 330 331 331 330 330 331 331 331 330 329 330 331 330 330 331 332 332 332 333 334 333 333 334 335 337 338 336 337 337 339 341 341 341 341
351 347 346 350 357 358 356 354 352 347 340 339 336 330 330 336 332 327 330 332 331 331 330 330 330 328 330 331 328 327 328 330 333 335 335 334 333 334 334 335 333 330 328 327 325 325 326 326 328 330 331 330 331 331 329 329 329 329 330 330 330 331 332 330 328 329 330 331 330 330 331 331 331 332 333 335 336 336 337 337 337 339 340 340 340
353 353 350 350 354 356 354 352 351 348 343 339 334 329 332 335 329 327 330 332 332 332 332 333 331 329 333 336 333 330 330 330 333 334 334 333 333 334 335 335 333 330 327 325 323 324 324 325 326 330 332 332 332 330 329 329 328 328 329 330 331 331 331 329 328 329 331 331 330 329 330 330 330 330 331 332 333 334 336 338 338 337 338 339 339
352 355 350 349 353 354 351 350 349 348 346 341 333 332 336 332 328 332 337 336 335 335 335 334 331 332 335 335 331 329 327 327 329 331 331 332 334 335 335 335 334 332 330 327 324 323 324 325 327 330 332 332 333 331 330 329 328 328 328 329 331 331 329 328 328 329 330 330 329 328 328 327 327 328 329 329 330 331 332 334 336 337 337 338 339
353 355 350 349 353 353 349 347 346 347 348 345 339 338 340 336 332 336 341 338 335 336 337 334 332 333 334 331 327 325 325 325 327 329 330 332 334 334 334 334 333 332 331 329 326 325 323 324 327 330 331 330 330 330 329 328 328 328 327 328 330 330 329 329 328 328 329 327 326 326 325 326 328 329 328 328 329 330 331 331 333 335 335 336 338
353 355 352 350 352 351 348 345 343 346 348 348 346 342 341 341 339 338 339 338 337 338 338 335 335 337 336 332 330 331 330 329 330 331 332 333 333 334 334 334 332 330 330 331 330 328 325 325 326 328 328 328 327 327 327 328 329 328 327 329 331 331 329 328 327 328 327 326 325 324 324 326 329 330 330 329 329 330 332 332 331 332 333 335 338
355 355 351 350 352 350 346 343 343 347 349 346 344 341 338 341 342 340 339 339 339 342 340 338 337 337 336 335 334 333 332 331 331 331 332 333 333 333 333 333 333 332 332 332 331 328 326 325 326 327 327 327 326 327 327 328 329 327 327 329 330 330 327 326 327 327 326 324 323 323 324 326 327 328 329 329 329 330 332 332 332 331 332 334 336
356 354 349 349 351 348 344 343 344 348 349 345 341 339 338 339 340 339 339 340 340 341 342 342 338 334 334 335 332 331 331 331 332 332 333 333 332 331 331 332 333 333 332 332 331 327 325 325 327 327 327 327 326 326 328 328 328 328 328 328 327 327 327 326 326 326 324 322 322 323 326 327 326 325 325 326 328 329 330 331 331 331 332 333 334
356 352 350 350 350 347 344 343 345 349 348 343 340 338 338 338 338 338 338 338 337 336 339 342 340 337 336 335 332 332 332 332 333 333 332 332 330 329 330 330 330 331 331 332 331 330 329 329 329 328 328 328 327 327 328 328 328 329 330 328 326 327 326 325 324 324 323 322 322 325 326 326 323 322 322 323 325 328 330 330 330 330 331 332 333
357 353 352 352 351 347 344 344 347 349 346 342 340 339 338 338 337 336 336 336 336 334 335 339 340 339 337 335 334 334 334 334 334 332 331 331 330 329 329 329 329 330 330 330 330 330 331 331 332 331 329 329 328 327 328 327 328 330 330 328 327 327 326 323 323 324 323 324 326 326 325 322 321 321 322 323 324 325 327 329 330 331 332 332 332
359 356 354 354 351 347 345 346 348 349 346 343 340 338 338 338 335 333 334 333 334 334 335 337 337 337 336 336 335 335 335 334 333 332 332 331 331 330 329 329 329 329 329 328 328 329 330 330 332 332 330 328 327 328 329 329 330 329 328 327 327 327 326 324 323 323 324 327 328 325 322 320 319 320 322 323 323 324 326 327 328 330 332 332 333
360 358 355 355 353 349 348 349 350 350 346 341 338 337 337 336 334 333 333 333 333 335 334 334 334 334 334 334 334 335 335 334 332 332 332 331 331 331 331 330 330 329 328 328 328 329 329 330 331 332 331 330 330 330 332 334 333 330 330 330 329 327 327 326 323 322 325 328 327 323 322 320 319 320 322 323 323 323 325 325 326 328 330 332 333
362 359 356 356 355 352 352 353 352 350 344 338 333 334 334 332 332 334 334 334 335 335 332 331 332 330 329 330 332 334 334 333 331 332 332 332 332 332 331 331 330 330 329 328 328 328 329 330 331 331 332 331 331 332 335 336 334 331 331 332 329 326 326 326 322 322 325 327 325 323 322 319 318 320 322 324 324 323 323 323 324 327 329 331 331
362 360 358 357 355 355 355 355 352 347 342 335 331 334 336 332 330 333 334 335 338 335 330 329 331 327 324 326 327 329 331 331 331 332 332 332 332 332 332 331 330 329 328 328 328 329 329 330 330 331 331 332 333 334 335 332 331 329 328 327 324 323 325 325 322 321 324 326 325 323 321 319 318 319 321 324 325 323 323 323 323 325 328 330 331
361 359 359 357 357 358 357 354 350 345 340 334 332 336 337 329 326 331 335 337 338 333 325 324 327 324 323 325 324 325 327 329 331 333 333 333 332 332 331 330 329 329 328 329 329 329 329 329 329 331 332 333 334 334 332 331 328 325 323 322 321 323 325 324 322 322 324 326 325 323 321 319 318 318 319 323 324 323 323 322 322 324 326 329 330
358 359 359 358 359 359 358 354 349 345 339 335 336 336 331 327 329 335 336 337 336 331 322 320 322 322 324 325 325 326 327 329 332 333 333 333 332 331 331 330 329 328 329 329 330 329 329 329 330 331 332 333 333 332 331 330 326 322 321 321 321 323 324 323 323 323 324 325 325 324 323 321 318 318 318 320 323 324 323 323 322 323 326 328 330
357 359 359 359 360 360 358 354 350 345 340 336 336 332 327 329 334 337 336 337 336 330 323 321 322 322 322 323 325 328 329 330 333 333 333 332 331 330 330 330 329 329 329 329 329 329 329 329 330 331 332 332 332 331 330 328 324 322 322 321 321 323 324 323 324 325 324 323 323 324 325 322 319 317 317 318 322 324 324 323 322 323 325 328 329
355 357 358 358 359 359 357 354 350 345 340 337 334 330 327 329 334 336 337 339 339 335 328 325 325 324 323 323 324 328 330 332 333 334 333 332 331 330 330 329 329 328 328 329 329 329 329 329 330 330 330 330 330 330 330 327 325 323 322 321 321 322 324 324 325 324 323 322 322 322 324 323 321 319 318 318 321 324 325 324 323 322 324 326 329
353 354 357 357 358 357 356 353 350 345 341 337 334 332 330 328 330 335 336 335 337 337 333 329 328 326 324 324 326 329 332 334 334 333 333 333 331 331 330 329 328 328 329 329 329 328 328 328 328 329 329 329 329 328 328 327 326 323 322 321 321 321 324 325 324 324 323 322 321 322 322 322 323 322 321 320 321 324 325 324 323 322 323 326 328
352 353 355 355 356 356 355 352 350 346 342 340 337 336 335 330 329 336 336 330 329 330 330 331 332 329 326 325 328 330 332 334 335 334 334 333 332 331 330 329 329 328 329 330 328 328 328 327 327 328 327 328 328 328 328 328 326 324 322 322 321 322 324 324 323 324 324 322 321 322 322 322 323 325 324 323 323 324 324 324 324 322 322 325 328
352 352 354 355 355 354 354 352 349 345 343 342 341 339 339 335 334 338 337 332 325 323 326 331 333 332 330 329 331 333 333 335 336 335 335 334 333 331 330 329 329 329 330 330 328 327 327 327 328 328 327 327 329 329 329 328 325 324 323 322 321 322 323 324 325 325 325 322 321 321 322 322 323 324 325 324 324 324 324 324 323 322 321 324 326
352 351 353 354 353 354 353 351 347 344 343 342 342 341 341 339 339 339 338 337 333 326 326 329 331 333 334 334 335 335 335 336 336 335 335 335 333 331 330 329 329 329 330 329 328 327 327 327 327 328 327 327 328 328 328 327 326 324 323 322 321 322 323 324 325 325 323 322 321 320 321 322 322 323 323 324 324 324 324 324 322 321 322 323 325
350 351 353 353 353 353 352 349 346 344 343 341 341 342 342 341 340 339 338 341 340 334 330 330 330 332 335 336 336 336 335 335 336 335 335 334 333 331 330 329 329 329 329 329 328 328 328 328 328 328 327 326 326 327 327 328 326 324 323 322 321 321 321 323 325 324 322 321 320 319 320 321 321 321 321 322 324 324 324 324 321 321 323 324 325
350 351 353 353 353 352 351 348 346 344 342 341 340 341 342 341 341 339 338 341 341 338 335 334 333 333 335 336 336 336 336 335 335 335 334 333 333 331 330 329 329 329 329 328 328 327 327 328 327 326 326 325 324 325 326 327 326 322 322 323 321 321 321 322 324 323 320 319 318 319 320 320 320 320 321 322 323 324 324 323 320 321 323 324 324
349 351 351 347 346 347 346 346 344 343 341 341 341 341 340 341 342 340 337 338 339 339 338 337 336 335 335 336 337 336 336 334 334 334 333 333 332 331 330 330 329 328 328 327 327 327 327 328 328 327 326 325 325 326 327 328 325 322 321 323 322 321 321 322 322 321 319 319 318 318 319 319 319 320 322 322 323 323 324 322 320 321 322 322 324
349 349 345 338 336 338 339 342 343 340 339 340 341 341 340 341 344 343 340 338 338 339 339 339 338 336 335 337 337 337 336 335 333 333 333 333 332 331 331 331 329 328 328 328 328 328 327 328 328 328 327 326 326 327 328 328 326 323 321 322 323 322 322 322 322 321 320 319 318 318 318 318 320 322 322 322 323 323 323 321 320 321 322 322 323
346 344 339 337 338 336 337 342 342 337 337 339 337 334 333 336 340 342 341 338 337 338 339 339 339 337 335 335 337 337 336 335 334 334 333 333 333 332 332 331 329 329 328 328 328 328 328 328 328 328 327 326 326 328 328 327 326 324 321 321 322 322 323 322 322 321 320 318 318 318 318 319 321 322 322 322 323 324 323 321 320 321 322 322 322
343 340 338 340 341 338 338 341 339 338 339 338 334 333 331 332 335 337 337 338 337 337 338 339 340 338 333 333 336 337 336 335 334 333 333 333 333 333 331 331 331 330 330 329 329 329 329 328 328 327 326 326 326 327 327 326 325 324 321 321 321 322 323 322 322 322 320 318 317 317 318 320 321 321 322 323 324 324 323 321 320 321 322 322 321
339 337 338 339 340 340 339 337 336 338 341 339 335 335 334 332 332 332 333 336 338 337 337 338 340 338 334 333 336 336 335 335 335 333 332 331 330 330 330 330 331 331 331 330 330 330 329 328 327 327 326 326 325 326 326 326 325 323 321 320 320 322 323 323 322 322 320 318 317 317 318 320 322 321 321 323 325 325 323 321 320 320 322 322 322
336 337 338 337 339 340 341 341 338 334 335 335 333 332 332 330 330 329 331 336 339 339 339 340 341 340 337 336 337 337 336 335 335 334 333 331 330 331 331 330 330 330 330 331 330 330 329 328 327 326 326 326 325 326 326 326 325 324 322 320 320 321 322 323 323 321 320 318 317 317 319 322 323 321 321 323 325 325 324 322 320 320 322 322 322
337 339 339 338 338 338 340 343 341 335 332 333 332 330 330 330 328 329 333 338 341 341 340 340 340 340 338 337 337 336 335 335 335 335 333 331 331 333 333 330 328 329 330 330 330 328 328 327 326 326 326 326 325 326 327 327 325 323 322 321 321 321 321 323 323 322 321 319 316 318 321 324 324 323 323 324 325 325 324 323 321 320 321 321 322
342 341 337 335 337 337 338 340 341 340 340 339 337 337 336 333 332 333 337 341 341 339 338 339 340 339 338 338 337 335 334 335 334 333 332 331 332 333 332 329 328 328 328 329 328 327 327 326 326 326 326 326 326 326 327 326 323 322 321 321 321 320 320 322 322 322 321 319 317 320 323 325 325 325 325 325 326 325 325 324 323 322 320 321 322
340 336 333 332 334 335 336 335 334 335 335 331 331 334 334 334 335 335 337 340 341 339 339 340 341 340 337 336 335 335 336 335 333 330 331 332 331 329 328 326 327 327 328 328 327 327 327 327 326 326 326 326 325 325 324 322 320 320 320 320 320 320 320 322 322 322 321 320 320 322 324 325 325 325 325 325 325 324 324 324 325 324 322 321 321
332 329 329 330 329 328 328 327 325 325 323 322 322 326 327 329 331 333 334 337 340 341 341 339 338 337 335 334 334 335 335 334 332 330 331 330 328 325 324 326 327 328 328 327 326 326 326 325 325 325 325 325 323 322 321 320 319 319 319 319 319 319 320 322 322 321 320 321 322 323 324 323 324 324 324 323 323 323 322 322 323 325 323 322 321
328 326 326 326 325 324 323 321 320 320 319 320 322 325 326 327 328 331 333 335 338 340 338 335 334 333 333 333 334 333 331 330 330 330 330 329 327 325 326 327 327 327 327 326 324 322 322 323 322 322 323 322 321 320 319 318 318 318 318 318 319 319 319 321 322 321 321 322 323 323 323 322 322 322 322 322 321 322 322 321 322 324 324 324 322
325 324 325 324 322 320 320 319 319 321 321 322 325 329 331 330 331 333 333 335 336 336 335 333 332 331 331 332 332 330 330 329 329 329 329 328 327 326 326 326 326 326 325 324 322 321 321 321 321 322 322 322 321 320 318 317 318 318 318 318 318 318 319 320 321 321 322 323 323 323 321 321 321 321 322 322 322 322 323 322 322 323 324 324 324
Wind_Speed
15 15 15 14 13 13 12 11 11 11 11 11 9 9 8 8 8 7 6 7 7 7 7 8 8 8 8 9 9 10 11 11 11 11 10 10 11 14 15 15 17 18 18 17 17 18 18 18 19 19 20 20 21 22 22 23 24 23 24 25 27 27 28 28 27 28 32 33 32 32 30 29 28 26 28 30 27 25 26 24 21 21 20 20 20
15 15 14 14 13 13 12 11 11 11 11 10 9 9 9 9 8 7 7 6 6 7 8 9 9 8 8 9 9 9 8 8 9 9 9 9 10 14 15 14 16 18 19 18 19 19 19 19 19 19 20 20 21 23 23 23 23 22 23 24 25 27 28 27 23 24 28 29 29 30 31 31 31 30 30 31 29 27 28 27 24 23 22 21 21
15 15 15 14 14 13 12 12 11 11 11 10 10 10 10 9 8 7 6 5 5 6 7 8 8 8 8 9 9 9 8 9 11 12 12 11 11 13 15 14 14 14 15 17 19 19 19 20 20 20 20 21 22 23 24 23 22 22 22 22 22 25 27 26 23 24 28 28 25 27 28 27 27 30 31 30 29 28 28 28 26 25 24 23 22
16 16 15 15 14 14 13 12 11 11 11 11 11 10 9 8 7 6 5 4 5 5 6 6 7 8 9 10 10 10 10 10 11 11 10 10 10 11 11 10 11 14 15 16 17 18 19 19 20 20 21 21 23 24 24 23 21 21 21 20 20 22 24 22 22 26 30 27 23 24 25 23 24 25 25 27 27 26 26 27 27 28 27 25 23
17 17 16 15 15 15 14 12 12 11 11 11 10 9 8 8 7 5 5 5 5 6 6 7 7 7 8 8 8 8 8 7 7 7 7 8 8 9 9 10 14 16 16 15 15 16 17 18 19 20 21 21 23 23 23 22 22 20 19 18 18 21 23 21 21 26 30 28 25 26 24 21 22 22 21 23 26 26 24 25 26 26 26 25 25
18 18 17 17 16 15 14 13 12 12 11 10 10 9 9 8 7 6 6 6 6 6 6 5 4 4 4 4 4 5 6 6 6 7 8 9 9 9 9 11 13 13 12 12 13 14 15 16 17 19 19 20 22 23 22 22 22 21 19 18 17 20 24 23 24 26 27 27 26 29 29 25 23 20 17 20 23 25 25 26 27 26 26 29 31
18 18 18 17 17 16 15 15 14 12 11 11 10 11 10 9 8 6 6 5 4 3 2 1 1 2 3 4 5 6 6 7 8 9 9 9 9 9 9 9 10 10 10 10 11 12 13 14 15 16 16 18 21 21 21 20 20 18 18 17 17 20 24 24 24 23 23 24 25 27 31 33 31 25 21 21 20 21 23 24 26 26 27 28 30
19 19 18 18 18 17 17 16 15 13 13 13 12 12 11 10 7 5 5 4 3 2 1 1 2 4 6 6 7 7 6 8 8 8 9 9 9 9 9 9 10 10 10 9 10 12 13 13 13 14 15 16 18 19 19 18 17 15 15 17 18 20 22 22 22 22 21 23 23 24 27 31 33 31 31 30 24 22 26 27 28 27 25 24 25
20 20 19 19 18 18 17 17 15 14 15 15 14 14 12 10 7 5 5 4 3 2 2 3 5 7 8 8 8 7 7 8 8 8 8 8 8 9 10 10 10 10 10 10 11 11 11 12 13 14 14 14 16 16 16 16 16 15 15 16 17 18 19 20 20 20 20 22 22 23 25 27 29 29 31 35 32 29 32 34 32 29 27 27 29
21 20 20 19 19 18 18 17 16 16 16 16 15 15 12 10 8 7 7 5 4 3 3 5 7 9 8 8 9 8 8 9 9 9 9 8 9 10 10 10 10 10 10 10 12 12 12 12 13 14 14 13 15 15 14 15 16 15 15 17 17 17 19 19 19 19 19 21 21 22 23 23 24 26 27 31 32 30 32 34 33 31 31 33 34
21 21 20 20 19 19 18 18 18 18 18 17 17 15 13 11 9 8 8 7 5 4 4 6 8 9 9 9 8 8 9 9 9 8 8 8 9 9 10 11 11 10 11 11 11 12 13 13 13 13 13 13 15 15 16 16 15 13 15 18 18 18 19 19 19 21 19 19 19 19 22 22 22 25 28 29 29 29 32 34 32 31 32 35 35
23 21 21 21 20 20 20 20 21 20 19 18 18 16 15 12 10 9 9 8 6 5 5 6 7 8 9 9 8 10 11 11 10 9 9 10 10 11 12 13 12 12 12 11 11 11 13 14 12 12 13 13 14 14 15 15 14 14 15 17 17 17 18 18 20 21 20 20 18 16 20 21 22 25 27 28 28 29 32 33 32 32 32 34 34
24 22 21 23 23 23 22 22 23 22 20 20 18 17 16 13 10 10 10 9 7 5 5 6 6 7 8 9 9 12 13 12 12 10 9 10 11 12 13 13 12 12 11 11 12 12 13 13 12 11 12 12 13 14 14 14 14 14 15 16 17 17 16 17 19 20 20 21 20 19 21 22 21 23 24 26 27 28 31 34 34 33 31 33 33
26 24 23 24 25 25 25 25 25 23 22 21 20 18 17 14 10 10 11 10 8 6 5 6 7 8 9 10 11 12 12 11 11 9 9 10 11 12 13 13 12 12 11 12 13 13 13 13 12 11 12 12 13 13 13 14 14 15 16 17 18 18 18 18 19 20 19 20 21 21 23 23 22 22 24 26 25 25 30 34 34 31 30 32 31
28 27 25 26 27 26 26 26 26 25 23 22 21 20 18 14 11 11 12 10 8 7 6 7 8 10 11 11 11 12 12 11 10 9 9 9 10 11 12 13 12 11 12 12 13 13 13 13 13 12 12 12 13 13 13 13 14 15 16 17 18 18 19 20 21 21 21 21 22 23 22 23 23 23 25 26 25 26 27 29 29 30 29 29 28
29 29 28 29 29 28 27 27 26 25 23 22 22 22 19 15 13 12 11 11 9 8 8 9 10 11 12 11 11 11 11 10 9 8 8 9 10 11 12 12 12 12 12 12 12 12 13 13 13 13 12 11 12 13 13 14 14 15 16 17 18 17 17 18 19 21 22 22 23 23 23 24 24 25 25 26 28 29 29 29 28 28 27 26 26
29 30 31 31 30 29 27 27 26 25 25 24 23 22 19 16 14 12 11 11 10 10 10 11 12 12 12 11 11 10 9 9 8 8 9 9 9 10 10 11 12 12 12 12 12 13 13 13 13 12 12 12 12 13 15 16 16 16 16 17 17 17 16 17 19 20 20 21 21 22 23 23 24 24 25 26 29 29 30 30 31 30 29 28 27
28 28 29 30 31 29 28 27 26 25 25 25 23 21 19 17 15 12 12 13 12 12 12 12 12 12 10 10 10 10 9 9 8 9 9 9 9 9 10 11 11 11 12 12 13 13 14 13 13 12 12 12 12 13 15 16 17 18 17 17 16 17 18 18 19 19 18 19 22 22 23 23 24 24 24 25 27 29 30 31 33 34 32 32 31
27 28 28 29 30 29 28 26 25 25 25 25 24 21 19 18 15 13 14 13 13 13 12 12 12 11 10 10 10 10 10 10 10 9 9 8 9 9 10 10 11 11 11 12 13 14 14 14 13 12 12 13 13 13 14 15 16 16 16 16 16 17 19 19 19 18 17 19 21 22 24 25 26 26 26 27 27 29 31 32 33 34 34 34 35
27 28 28 29 30 29 28 27 26 25 25 24 23 20 18 17 15 15 15 14 14 13 12 11 11 10 10 11 11 10 10 10 10 9 9 8 9 10 10 11 11 11 12 13 13 14 14 14 14 13 13 14 14 14 14 15 15 15 16 17 17 18 20 20 20 19 18 19 20 22 24 25 27 28 29 30 30 30 29 31 33 34 35 36 36
26 26 27 28 30 29 28 27 25 25 24 23 22 20 18 17 16 15 15 14 13 12 12 11 10 10 11 11 10 9 9 10 9 9 9 9 10 11 11 12 13 13 13 13 14 14 14 14 14 14 14 15 15 14 15 15 15 15 17 16 16 18 20 21 21 20 19 20 21 23 24 25 25 27 28 29 30 31 31 32 32 33 36 37 37
25 25 24 26 28 29 28 27 26 25 25 23 22 20 18 17 16 15 14 14 13 13 12 10 9 10 10 10 9 9 9 10 9 9 9 10 10 11 12 13 14 14 13 13 15 16 15 14 14 14 14 14 14 14 14 15 15 17 18 16 16 18 19 21 20 19 18 20 22 23 24 25 25 27 29 29 29 30 31 33 33 33 35 37 39
23 23 24 26 27 28 29 28 26 26 25 24 22 20 18 18 16 14 13 13 12 11 12 12 11 10 10 10 9 9 9 9 9 9 9 9 10 12 12 13 14 14 14 15 16 17 16 15 14 14 14 14 14 15 15 15 16 17 19 18 18 19 20 21 20 17 17 20 23 23 23 24 27 29 31 32 31 30 31 34 36 35 35 37 40
22 23 25 26 26 28 29 29 28 26 26 24 22 20 18 17 15 13 13 13 11 10 10 12 12 9 9 9 9 9 9 9 9 9 9 10 11 12 12 12 13 14 15 15 16 17 17 16 15 14 15 15 14 15 16 16 17 17 19 20 21 20 20 22 19 16 17 21 22 22 23 25 29 32 34 34 33 31 31 33 35 35 35 37 38
22 24 26 26 27 29 31 31 29 28 27 25 23 20 18 16 14 13 11 12 11 10 9 10 10 8 8 9 9 9 9 9 9 9 10 10 11 12 12 13 14 14 15 15 15 15 16 17 16 16 17 16 16 16 16 17 17 17 19 21 21 21 21 22 19 16 18 21 21 21 24 28 32 34 34 34 35 35 32 33 34 34 34 35 37
22 25 26 28 29 31 32 32 31 29 28 27 25 21 19 17 15 13 11 11 10 10 9 9 9 8 8 9 9 9 9 9 9 10 10 11 11 12 13 13 14 14 15 15 15 15 17 18 17 17 18 18 16 16 16 17 18 18 19 21 22 22 21 21 20 17 17 19 20 22 25 29 33 33 32 33 35 36 32 30 34 35 33 32 34
20 23 25 27 29 30 31 32 31 30 30 29 27 22 18 16 15 13 12 11 11 11 11 10 9 8 9 9 9 9 9 9 10 10 11 11 11 12 13 14 14 14 15 16 16 16 17 18 17 17 18 17 16 15 15 16 17 18 18 19 22 22 21 20 20 19 17 17 20 23 24 28 32 33 33 33 34 33 30 29 32 32 33 33 32
19 22 24 26 27 28 30 30 30 31 32 31 27 22 19 17 16 15 13 11 11 11 11 10 9 10 10 10 9 9 10 10 10 11 11 12 12 13 14 14 14 14 15 16 16 17 17 17 16 16 17 16 15 14 14 15 16 17 17 19 21 23 21 20 21 20 17 17 20 22 23 27 31 32 32 33 33 33 31 30 30 27 28 32 33
21 23 25 26 27 28 29 29 30 31 33 32 27 23 20 18 16 16 14 12 12 12 11 9 9 10 10 10 10 10 10 10 10 11 12 12 13 14 14 13 14 15 16 16 17 17 17 17 17 16 16 16 14 13 14 16 16 17 19 20 22 23 21 20 21 20 18 17 20 22 22 26 31 32 33 33 33 35 33 31 30 26 23 27 34
21 23 25 26 27 28 29 30 31 33 34 32 27 23 20 17 16 16 15 14 14 13 11 9 10 11 10 10 11 11 10 10 10 11 12 12 13 14 13 13 14 16 16 17 17 17 16 16 16 16 15 14 14 15 17 18 17 17 19 21 22 21 20 20 21 20 19 18 20 23 23 25 30 33 34 34 34 37 38 36 33 28 23 24 30
20 22 24 26 28 28 30 31 33 35 35 32 28 25 20 17 17 17 16 15 15 13 11 9 10 11 11 11 11 11 11 10 10 11 12 12 14 14 13 14 15 16 16 16 16 16 15 15 16 15 15 14 15 17 19 18 17 18 19 20 20 19 20 20 20 20 20 20 21 24 24 24 27 32 35 36 35 37 41 41 38 30 22 19 22
19 22 24 26 28 29 30 31 33 35 35 33 30 26 22 20 20 18 16 16 15 14 11 10 11 11 11 11 11 11 11 11 11 11 12 13 14 13 13 14 14 15 15 15 15 15 15 15 15 15 15 15 15 17 19 19 18 19 20 20 19 19 20 21 20 20 21 21 23 25 25 24 24 28 33 36 36 36 40 43 42 36 26 19 17
17 20 22 24 26 27 28 30 32 35 36 34 30 26 23 22 21 19 17 16 15 14 13 12 13 12 12 12 12 12 12 12 12 12 13 13 14 13 12 13 14 14 15 15 15 15 15 15 15 15 15 15 15 17 19 20 20 20 21 20 19 20 21 22 21 21 21 22 24 26 27 26 24 24 29 34 35 36 38 41 43 40 32 25 21
15 17 19 21 22 23 26 28 31 34 34 31 28 25 23 22 21 20 19 18 17 15 15 14 14 14 13 13 13 13 12 12 12 12 13 13 14 13 12 12 13 13 14 14 14 14 14 14 14 15 15 15 15 16 18 20 20 20 21 20 20 20 21 23 23 22 21 22 25 26 27 26 26 25 27 30 34 36 38 40 42 40 35 29 25
14 16 17 18 20 21 24 26 28 29 29 27 25 23 21 21 21 20 20 21 20 17 16 16 15 15 15 14 14 13 13 13 13 13 13 14 14 12 12 12 13 13 13 14 14 14 14 14 14 14 14 15 15 16 18 20 21 20 20 20 20 20 22 23 23 22 21 22 24 26 26 26 26 26 26 27 31 35 38 39 40 41 39 33 28
14 15 16 18 19 20 23 24 25 26 25 23 22 21 19 20 20 20 20 22 21 19 18 17 17 16 16 15 15 14 13 13 13 13 13 14 13 12 12 12 13 13 13 14 14 14 13 14 14 14 15 15 15 16 18 19 20 19 19 20 20 20 22 23 23 22 22 24 25 25 26 25 25 26 27 27 28 32 36 38 39 41 40 36 32
13 14 15 17 19 20 21 23 24 24 22 20 19 19 18 18 19 19 20 20 20 20 19 19 19 18 17 16 15 14 13 13 13 14 14 14 13 13 12 12 12 13 13 13 14 14 13 14 14 14 16 16 15 16 18 19 19 18 19 19 19 20 22 23 22 22 23 24 24 24 25 25 25 25 27 27 28 30 33 35 38 40 39 35 34
14 14 15 17 18 19 20 21 22 22 21 19 18 17 17 19 19 19 19 19 20 20 21 21 20 19 18 17 16 15 14 13 14 15 14 14 14 13 12 12 12 12 13 13 13 13 13 13 14 15 17 17 16 16 17 18 18 18 18 19 19 19 21 22 22 22 24 24 24 23 23 23 24 25 26 27 27 28 31 33 36 38 36 34 35
14 15 16 18 18 19 19 19 19 20 20 19 18 16 17 18 19 20 20 20 20 21 21 21 21 19 17 17 16 15 15 14 14 15 14 14 14 14 13 13 13 12 13 13 12 13 13 14 15 16 18 18 17 15 15 16 17 17 17 18 19 20 21 22 22 24 25 24 22 21 21 21 23 24 25 25 25 26 28 30 32 34 34 34 36
15 16 16 17 18 19 18 18 18 19 19 18 17 17 17 18 19 21 21 21 22 22 21 20 19 18 17 17 17 17 16 15 15 15 15 15 15 14 14 14 13 13 13 13 12 13 14 15 16 16 17 18 17 14 13 16 17 17 16 17 19 19 20 21 22 25 26 24 23 21 20 21 22 22 23 24 24 24 25 27 29 30 32 34 35
16 17 18 18 19 19 19 18 17 18 18 17 17 18 19 19 19 20 22 23 23 22 20 20 20 19 19 18 18 18 17 16 16 15 15 15 15 15 15 14 14 13 12 12 13 14 15 16 15 15 16 17 16 14 14 17 18 17 16 17 18 19 20 21 22 24 25 24 23 22 21 20 21 22 23 23 22 21 22 25 28 29 31 34 34
17 19 20 19 18 18 18 16 15 16 16 16 18 21 22 21 21 22 22 23 23 22 21 22 22 22 21 20 20 19 18 16 16 16 16 16 16 16 16 15 15 15 13 14 14 15 15 16 15 17 17 16 14 14 16 18 19 18 17 17 18 19 20 21 22 23 24 23 22 21 20 21 22 22 22 22 20 18 20 23 26 27 29 33 34
18 19 18 16 15 15 15 13 12 12 13 15 19 21 23 23 24 24 23 22 22 22 23 24 24 25 25 23 20 19 18 17 18 17 17 17 17 17 18 17 16 16 16 15 14 14 14 15 16 17 17 15 14 13 15 18 19 19 18 19 18 18 19 19 21 22 23 23 22 20 20 22 22 20 20 20 18 17 18 22 25 26 27 30 34
17 17 15 14 13 13 12 11 10 11 12 16 19 20 21 23 23 22 21 20 20 22 24 26 26 26 27 24 20 20 19 18 19 19 18 17 17 18 18 18 17 17 15 14 13 13 13 14 15 16 16 16 15 13 13 16 18 17 18 19 19 18 18 18 19 21 22 22 20 19 20 21 19 17 18 19 16 14 17 20 23 25 26 28 32
15 15 14 12 11 10 9 9 11 14 15 17 18 18 18 19 20 19 18 17 18 20 23 25 26 25 25 23 20 20 19 19 19 19 18 17 17 17 18 18 19 18 15 14 13 12 13 13 14 15 15 15 14 13 13 15 17 18 18 18 18 17 17 17 18 19 20 20 19 18 18 18 16 15 18 18 15 14 16 17 20 22 24 26 29
14 13 14 12 9 9 8 7 8 12 14 15 17 17 18 18 17 17 16 16 17 19 21 24 26 25 24 22 20 19 19 19 19 18 19 18 16 15 17 18 18 17 15 14 12 12 12 13 13 14 14 14 13 12 13 14 17 20 20 18 17 16 15 15 15 17 19 19 18 17 16 16 15 15 17 18 16 16 16 14 16 20 22 23 27
13 14 14 11 8 7 7 5 5 6 8 10 12 14 17 18 17 15 14 15 18 19 20 22 23 23 22 21 21 21 21 20 19 19 18 16 14 15 17 18 17 16 15 14 13 12 13 14 13 13 13 13 12 12 14 18 20 21 20 18 16 16 15 13 13 14 16 17 16 15 14 15 16 15 16 17 17 17 16 14 14 17 20 21 24
13 13 12 9 8 7 5 6 6 7 9 11 11 11 13 15 15 14 14 15 16 17 17 17 18 18 19 20 21 20 19 19 17 17 17 16 16 18 19 18 18 19 16 13 11 11 11 12 12 12 12 12 12 12 17 21 21 21 19 17 15 15 14 13 12 13 15 15 14 13 13 14 14 15 16 17 18 18 17 16 15 16 17 19 22
12 11 10 8 6 6 7 8 9 11 12 13 14 14 13 13 14 14 13 13 13 13 14 15 16 18 19 19 19 18 18 18 18 19 21 20 20 20 18 17 19 21 19 16 13 11 12 12 11 11 13 15 16 16 18 20 20 20 19 17 14 14 13 11 10 12 14 13 13 13 13 13 13 14 15 15 17 18 17 17 17 16 16 18 20
10 9 7 7 8 9 9 10 10 12 14 14 14 13 13 12 11 11 10 11 12 12 13 15 16 17 18 18 18 18 18 18 17 19 20 18 16 18 20 21 22 22 21 20 18 17 17 17 16 16 18 19 19 19 19 19 17 17 17 16 14 13 13 12 10 11 12 13 13 11 11 12 13 13 14 14 15 18 18 18 18 18 17 18 19
10 8 7 9 10 10 9 10 11 12 13 12 11 9 9 8 8 8 9 10 11 11 13 14 15 17 18 18 18 17 16 14 13 16 18 17 15 18 22 24 26 26 24 23 22 21 20 19 18 19 20 19 19 19 18 17 16 16 16 15 15 13 12 12 11 10 11 12 11 10 10 12 12 11 12 13 14 16 18 18 18 18 18 18 18
Wind_Direction
174 177 176 176 176 175 178 178 180 182 186 191 191 193 190 189 195 201 214 218 216 223 227 226 227 236 244 249 259 266 271 278 284 284 280 276 269 272 278 281 286 293 294 294 295 295 292 293 294 292 290 289 287 285 282 274 272 274 271 270 269 270 273 273 270 268 264 261 261 262 261 259 259 258 258 261 261 258 256 252 245 246 247 241 238
170 173 177 178 180 181 181 184 188 190 194 197 196 203 205 202 202 206 220 232 234 232 234 235 234 239 245 251 259 263 271 278 281 279 278 280 280 284 291 291 291 295 297 297 298 298 297 298 298 295 293 291 287 285 285 280 275 273 271 269 266 265 271 272 267 264 263 261 262 264 265 263 261 257 257 261 262 256 254 254 248 246 244 240 239
171 176 181 183 184 184 185 189 194 195 199 200 203 211 214 214 211 216 229 233 240 242 244 249 252 254 255 258 265 271 278 279 278 280 286 291 289 294 303 304 298 297 298 300 300 299 298 296 293 291 291 290 287 285 284 281 276 273 271 267 262 263 269 267 259 258 261 261 259 262 263 264 264 259 256 258 259 255 250 249 248 247 245 241 240
177 182 186 189 188 187 189 192 193 196 200 200 207 215 218 220 218 222 230 227 234 244 246 252 260 265 267 271 277 283 284 282 287 292 296 299 297 303 308 299 291 292 293 294 292 290 289 288 287 286 285 283 282 283 284 282 279 276 274 269 263 265 271 268 261 260 263 261 257 255 255 256 259 258 258 257 253 252 251 250 249 247 245 243 241
183 186 188 193 190 189 191 192 191 193 197 197 201 208 208 209 209 214 223 228 234 242 247 251 259 268 275 283 292 296 298 298 300 302 301 301 302 304 300 286 284 288 289 287 287 287 286 286 285 284 284 283 282 283 284 282 280 278 277 275 270 272 276 272 266 266 267 264 256 253 252 250 255 257 259 256 249 249 252 248 246 245 245 244 239
187 187 189 192 190 189 190 189 189 189 191 192 192 192 193 198 205 213 218 222 226 233 241 245 252 267 284 300 306 303 306 304 297 297 298 300 301 299 298 295 294 296 297 296 295 293 289 288 286 284 283 282 281 280 279 281 283 281 275 273 272 275 279 276 272 272 272 268 258 252 250 249 255 257 258 263 258 253 249 243 243 243 243 242 240
188 190 191 191 188 188 187 187 187 186 186 184 181 183 190 199 206 210 211 211 216 227 236 246 279 315 318 312 311 308 304 298 297 302 303 305 308 307 308 307 305 307 307 305 303 301 298 294 291 288 285 282 281 281 283 284 284 282 276 274 272 274 280 281 280 279 274 272 267 259 253 250 254 256 256 263 267 261 253 250 251 250 246 245 243
186 189 191 189 187 186 185 184 183 182 182 178 178 188 196 200 202 202 204 206 211 221 252 324 341 340 332 326 325 320 307 301 308 311 307 308 310 310 310 309 308 310 312 313 312 310 309 306 303 299 294 290 289 289 292 290 284 283 284 282 279 279 283 287 289 286 277 276 275 271 264 258 258 259 255 253 256 262 262 260 260 256 252 252 251
187 189 190 188 186 185 183 181 179 179 182 180 184 196 199 196 197 201 201 209 224 241 292 329 342 339 335 332 329 321 307 305 310 307 305 307 309 309 309 309 308 310 314 314 312 312 314 313 312 310 306 304 303 301 300 297 296 300 298 290 287 288 290 290 289 286 282 279 274 271 269 266 266 265 258 252 251 255 259 260 260 257 254 255 255
188 188 188 187 186 185 183 180 176 178 183 184 188 196 197 194 198 201 204 217 234 262 315 332 337 338 333 324 322 319 308 307 308 308 310 308 307 308 306 307 310 312 315 312 310 315 318 317 314 312 313 311 311 313 311 308 308 307 300 293 292 293 294 291 286 284 283 280 275 274 273 269 266 266 266 261 251 249 256 259 259 257 255 256 255
186 187 187 186 187 185 182 180 176 177 183 186 189 193 194 197 201 204 211 224 239 269 312 324 327 327 320 312 313 313 307 308 307 305 307 305 306 309 308 312 316 315 316 315 317 319 318 319 316 310 310 310 312 317 317 315 312 303 297 299 300 298 297 296 292 289 288 284 281 281 280 274 266 265 270 268 254 247 253 257 258 259 256 255 254
185 186 187 185 185 185 182 179 177 179 185 188 190 192 195 201 208 213 221 231 241 264 296 309 313 312 309 309 309 309 310 309 302 299 302 304 307 309 311 317 317 316 319 319 319 318 314 318 319 311 309 311 314 315 315 316 314 307 305 308 309 305 301 298 297 296 293 289 285 280 280 279 272 269 271 269 260 253 254 259 262 263 259 256 254
184 186 188 188 187 185 182 180 180 185 192 192 188 191 199 207 213 221 229 235 241 261 283 292 297 293 293 300 304 308 310 307 302 300 301 301 303 307 313 316 314 314 316 313 313 315 316 318 318 313 312 313 314 315 317 319 317 314 315 317 316 312 308 301 296 297 297 294 292 285 281 280 275 275 277 273 267 259 259 265 266 262 260 260 258
184 187 192 194 191 185 181 182 187 193 197 195 188 191 203 211 217 226 232 236 244 257 266 273 283 285 287 296 303 306 306 302 298 296 292 295 299 304 309 310 310 309 307 308 314 318 320 319 316 313 312 314 317 320 323 321 318 318 319 320 318 315 313 308 303 302 301 299 297 292 286 283 279 279 281 277 271 264 261 264 264 260 260 262 260
186 189 196 199 195 186 181 184 192 198 198 195 191 195 207 213 221 228 232 238 246 252 258 264 274 283 287 293 300 302 301 299 294 293 295 299 301 302 307 309 308 304 304 310 317 320 321 319 315 314 314 315 317 321 323 320 317 318 317 316 315 314 313 311 310 309 306 301 299 296 289 287 287 282 279 275 271 267 262 262 261 258 259 261 258
188 189 195 201 196 185 181 185 192 197 196 194 196 203 209 214 225 232 231 238 245 246 257 267 272 279 284 288 295 298 299 300 298 296 295 295 296 300 305 308 305 304 308 315 321 322 322 319 314 314 315 314 314 316 318 316 315 315 314 313 314 313 311 312 313 311 307 305 304 303 298 296 296 290 283 277 274 271 268 264 259 253 252 257 258
192 188 190 197 197 186 182 184 188 192 192 194 202 209 211 218 229 232 228 235 243 246 255 265 271 277 278 281 291 294 293 292 288 284 283 286 292 298 303 305 306 308 311 316 323 323 322 321 317 313 313 311 310 313 318 320 321 321 317 317 318 315 312 317 322 318 314 313 311 309 305 302 301 296 289 283 281 280 274 263 258 257 252 250 254
195 188 185 195 197 187 183 183 185 189 190 194 205 209 211 221 230 228 226 230 236 241 249 258 267 273 271 271 281 289 288 285 280 277 280 285 292 296 300 302 304 308 311 315 321 321 321 322 319 314 312 312 311 315 321 323 323 323 322 322 321 320 319 323 326 325 322 320 319 319 316 312 309 304 297 289 284 282 274 263 261 261 254 247 250
195 190 185 195 198 186 181 182 182 185 186 193 204 207 210 220 224 217 217 223 228 235 243 253 263 266 262 266 277 284 287 285 282 281 282 284 287 290 295 299 302 305 307 310 314 316 319 319 318 313 309 308 309 313 320 322 322 325 326 324 320 319 322 326 327 325 324 323 322 323 321 319 317 314 309 301 293 287 280 274 269 263 257 252 250
196 190 185 193 197 187 181 181 181 182 182 188 197 199 202 211 216 211 208 218 227 231 238 250 260 261 262 272 283 287 289 290 288 288 287 283 283 287 291 294 298 300 302 306 309 311 313 313 313 311 307 306 307 310 316 320 324 329 329 325 322 321 322 323 324 324 324 325 325 325 324 322 319 315 312 307 302 297 289 281 274 268 264 259 252
197 191 187 193 194 186 181 181 181 181 181 185 189 190 192 198 204 205 207 217 224 227 235 245 248 251 260 273 280 280 282 286 286 286 285 282 284 291 294 295 300 304 306 306 306 306 307 308 308 308 308 308 308 310 314 316 320 325 326 324 320 319 320 322 323 323 324 327 328 329 328 325 319 313 310 307 302 298 292 285 279 274 269 262 255
198 190 190 197 192 183 180 180 180 180 183 185 187 188 190 192 196 200 206 213 218 223 231 238 241 246 255 264 268 268 271 278 280 280 281 283 289 295 295 295 298 303 304 302 302 303 304 302 302 304 306 308 309 310 310 313 315 318 321 321 317 316 319 322 322 320 324 330 331 330 328 325 322 317 312 308 302 296 291 286 281 277 272 265 259
197 189 192 200 193 182 179 180 180 181 183 185 187 188 189 191 193 196 205 211 217 223 226 236 251 258 256 257 263 266 269 272 277 281 280 279 287 293 291 290 293 297 299 300 304 307 305 298 295 297 300 304 309 309 308 311 314 314 315 316 317 318 320 323 322 318 324 332 334 332 329 326 325 321 317 314 309 299 291 287 282 277 275 269 263
198 191 193 198 192 181 178 180 181 181 183 184 185 186 187 190 193 197 205 212 215 218 219 230 248 255 252 255 262 265 267 269 270 274 275 277 286 290 289 288 291 294 297 300 305 309 308 301 294 293 297 301 305 306 307 310 312 310 308 311 314 316 318 322 322 320 326 333 335 332 329 328 328 326 323 322 318 307 294 288 285 280 277 273 267
197 192 191 193 188 182 180 181 182 181 181 182 182 182 183 186 191 198 207 211 212 216 217 221 232 240 244 252 259 260 262 264 266 269 273 277 282 285 289 291 293 296 297 299 301 302 302 301 295 292 294 296 300 303 307 311 311 306 304 307 309 310 315 320 319 317 324 330 330 328 330 333 333 331 329 329 327 318 301 287 285 282 277 274 270
197 193 190 189 185 182 181 182 183 180 178 180 181 181 182 185 189 195 205 209 209 211 213 216 225 234 239 246 254 257 257 260 266 270 272 275 280 286 291 293 293 294 294 296 297 296 296 300 298 294 293 292 293 300 306 307 306 306 306 305 305 307 311 314 314 314 320 323 322 325 333 339 339 336 333 334 332 325 312 299 292 284 273 271 271
198 194 191 188 185 182 181 181 180 177 179 185 186 184 183 189 193 194 199 206 208 210 214 219 224 229 236 243 250 255 257 260 264 266 269 274 280 285 287 288 291 293 293 294 295 295 295 299 299 297 297 294 292 297 300 297 298 303 303 298 299 304 307 309 311 312 313 316 320 325 332 340 344 342 337 338 337 330 322 317 311 295 276 270 269
196 195 194 191 187 183 181 179 177 179 187 192 190 187 188 194 195 194 199 204 207 215 225 228 226 231 240 247 249 251 255 261 264 265 268 274 280 283 287 291 292 293 294 294 294 294 293 294 296 295 295 295 294 294 290 289 294 298 294 290 296 303 302 304 310 311 307 311 319 324 329 339 346 345 339 341 344 340 331 323 322 312 287 273 265
194 195 195 192 189 185 182 180 180 186 192 194 191 189 190 194 196 195 199 202 207 223 237 234 228 240 250 254 256 258 259 262 264 265 269 276 282 286 290 293 292 292 295 295 292 291 290 292 295 295 294 294 293 286 282 286 294 298 296 296 300 303 300 301 309 310 306 308 315 320 327 339 346 346 343 341 342 343 340 333 331 325 303 280 265
197 196 195 193 191 187 184 184 186 192 195 193 190 186 187 195 202 202 200 201 210 229 245 238 231 243 252 255 263 268 268 267 263 262 269 276 282 288 289 289 291 294 297 296 293 292 292 293 294 293 293 291 285 282 284 290 298 303 304 304 303 301 298 300 307 309 304 304 311 317 325 337 346 350 349 344 339 340 342 341 340 335 319 297 274
200 197 195 193 191 189 188 188 191 195 195 191 188 189 194 202 204 201 201 203 213 229 245 242 236 241 247 252 262 267 268 268 262 260 267 275 283 289 289 287 292 297 298 297 297 296 294 293 292 292 292 288 284 286 290 296 306 314 314 311 305 300 298 301 305 307 305 304 308 314 320 331 345 353 352 347 342 341 341 341 343 342 330 312 291
203 198 195 195 194 193 192 190 191 194 193 191 193 198 202 201 198 199 203 207 215 228 241 240 235 239 247 252 256 258 260 261 258 258 265 276 285 288 285 287 293 298 298 298 298 297 297 296 294 292 291 289 288 289 292 300 314 323 322 317 308 301 299 302 303 303 305 306 308 313 317 324 338 351 353 348 343 340 339 340 342 343 339 331 316
206 200 197 198 197 197 195 189 188 192 194 196 200 202 202 199 197 198 199 202 211 223 235 237 232 234 244 251 254 253 252 252 253 258 265 274 283 283 281 287 293 295 296 297 299 299 300 298 295 295 294 292 290 291 294 303 314 322 324 320 311 303 300 301 303 302 303 307 310 312 316 320 326 338 348 348 341 337 337 338 339 341 341 340 337
204 200 198 198 197 197 195 188 186 192 197 199 201 201 203 204 202 200 202 207 211 217 228 233 231 233 240 246 250 249 246 247 250 256 263 269 275 277 278 283 290 293 294 296 298 299 299 298 297 298 298 295 294 293 295 301 310 318 323 320 314 306 301 303 305 299 297 306 312 312 316 320 320 324 335 340 338 335 334 335 335 337 339 339 340
197 194 193 193 192 191 190 187 185 187 191 193 197 199 203 209 208 204 209 219 223 223 229 231 228 231 238 242 243 244 244 246 250 254 260 263 268 272 276 280 286 290 291 294 297 298 297 298 299 298 299 298 296 296 296 300 307 316 322 322 318 310 306 308 309 299 296 308 314 312 314 319 321 322 328 333 334 333 332 331 333 336 338 338 339
189 188 186 186 186 185 184 183 182 183 184 188 195 198 202 208 209 205 210 225 231 230 230 230 226 227 233 236 235 237 242 246 249 253 256 258 262 266 271 275 281 286 288 293 296 296 294 295 296 298 301 300 296 296 298 302 306 315 321 322 320 316 312 312 311 309 310 315 315 313 314 317 321 325 328 332 334 332 330 331 334 336 337 336 337
180 180 180 181 180 179 180 180 181 184 184 187 194 200 202 205 207 206 211 221 228 230 232 233 230 227 227 228 227 231 240 245 247 250 252 253 258 263 267 270 276 284 288 292 295 294 292 293 296 299 301 301 300 300 300 301 306 315 320 320 320 320 318 313 312 316 320 319 317 318 317 317 322 327 329 333 335 331 328 330 335 338 337 334 335
168 169 171 173 173 174 177 180 183 186 187 189 196 201 206 209 209 211 214 216 220 228 232 234 234 229 224 225 226 228 236 242 245 249 251 252 256 258 261 265 271 278 284 289 294 293 291 293 298 299 298 296 297 299 299 301 307 314 318 318 317 319 321 319 317 322 326 323 321 321 321 321 325 328 329 332 334 331 329 331 336 340 339 335 335
159 162 165 168 170 173 176 180 184 190 193 196 200 204 210 216 217 217 219 218 220 226 229 231 234 231 224 226 229 229 234 242 245 248 250 250 251 253 257 261 266 273 280 286 289 289 291 295 296 297 299 298 299 300 298 300 308 314 316 317 316 316 319 322 323 326 329 329 327 326 327 328 329 329 329 331 333 332 330 332 337 341 342 339 338
153 158 164 170 173 175 177 181 187 194 200 203 208 214 218 221 223 224 226 225 225 228 228 228 229 228 226 228 230 231 234 239 244 247 248 248 247 250 254 259 263 270 278 283 284 285 290 294 296 298 301 302 301 300 295 297 308 315 315 315 316 314 316 319 324 328 330 331 332 332 333 334 333 331 330 331 333 333 331 334 340 345 347 346 343
153 159 164 167 173 178 181 184 191 199 205 209 215 224 228 227 227 230 231 232 232 229 227 227 227 227 228 229 232 234 234 238 243 244 245 244 244 247 251 255 261 267 271 273 276 281 286 291 297 300 299 297 298 297 294 299 310 318 318 316 314 311 311 315 321 328 330 329 330 332 334 335 335 333 331 330 332 335 335 338 344 349 350 349 348
158 165 165 164 170 179 182 185 194 205 212 219 228 237 244 243 240 239 241 242 240 233 228 229 229 228 230 232 234 235 233 234 239 241 242 243 241 243 248 253 257 259 260 265 271 276 283 290 296 298 300 302 303 300 299 305 314 320 321 318 314 310 310 311 317 327 331 330 330 332 333 334 334 332 331 331 333 336 339 344 350 352 351 352 355
162 167 165 163 169 178 182 186 198 210 221 234 241 246 252 254 254 256 258 256 248 239 235 234 231 232 238 239 235 232 230 231 235 238 241 242 242 244 247 249 252 253 254 260 266 270 278 288 295 298 302 306 303 298 304 311 314 317 320 320 317 312 310 309 313 323 329 329 329 331 330 330 330 330 332 335 336 338 343 351 357 356 355 360 5
165 165 164 166 171 177 183 192 203 209 219 237 248 254 260 265 269 274 271 263 252 244 241 240 235 237 244 244 235 231 230 232 238 242 243 246 251 255 252 246 244 246 249 254 259 263 272 284 294 298 303 307 306 304 311 312 308 311 319 322 319 315 312 308 310 320 327 328 327 327 327 328 328 329 335 339 340 341 346 355 1 1 1 4 7
164 166 169 171 174 177 180 191 211 220 228 242 255 265 273 278 283 284 277 264 252 243 240 240 238 238 244 243 235 231 232 235 241 245 247 252 260 261 255 249 244 242 245 248 250 258 271 282 292 298 304 310 311 313 315 309 304 310 318 320 319 319 315 307 307 317 325 327 325 324 327 330 327 328 335 338 342 347 349 354 3 6 7 7 8
159 166 172 169 170 184 187 193 223 241 253 265 275 282 287 289 289 285 275 260 250 244 242 244 243 242 243 241 233 233 239 242 244 246 249 255 259 256 253 255 250 244 244 248 250 261 275 284 292 299 302 305 309 312 308 299 299 307 313 315 317 319 315 309 310 317 322 326 327 327 332 335 329 328 334 334 338 348 349 351 5 10 10 11 13
159 174 183 178 170 179 187 195 216 237 256 268 279 287 291 294 296 292 277 261 255 254 251 249 246 242 239 239 238 241 244 245 248 253 252 250 250 248 250 256 254 248 248 254 261 271 278 284 293 299 299 302 309 309 299 295 300 308 311 313 316 316 314 313 313 315 319 325 328 330 340 344 336 334 338 335 338 349 352 349 360 10 11 12 18
168 180 186 183 176 179 196 221 236 250 262 272 280 283 283 287 288 285 275 265 261 260 254 246 242 241 241 242 244 245 243 243 251 258 254 249 251 253 252 253 249 243 241 245 257 269 274 281 293 298 295 295 298 297 295 298 306 311 312 317 320 315 314 313 312 314 321 330 338 342 347 347 341 341 345 342 342 350 357 357 358 4 9 11 17
177 181 180 184 198 221 245 256 265 275 283 291 296 295 292 290 284 279 275 264 255 251 249 246 246 249 249 245 242 243 245 249 256 254 248 251 260 257 247 242 240 237 234 236 247 260 264 268 280 286 284 286 290 295 299 304 309 312 314 320 323 317 313 313 312 317 324 334 348 351 345 342 347 349 345 342 344 350 357 5 6 5 7 10 14
177 180 189 216 239 251 259 268 278 288 293 300 304 301 300 298 286 275 269 258 247 246 252 257 257 255 252 246 241 244 251 255 256 251 245 251 261 251 238 237 242 243 242 245 253 261 263 266 273 275 275 280 289 297 301 303 306 310 315 321 323 320 316 313 313 319 327 335 346 349 340 340 351 353 344 340 346 348 351 2 10 8 7 10 12
190 200 218 238 246 251 261 275 287 294 299 306 310 304 302 303 289 270 263 259 255 255 260 264 263 262 263 259 252 255 262 259 254 255 255 253 248 241 239 242 247 248 248 251 256 261 263 268 274 275 276 281 288 293 298 301 305 311 317 322 323 322 318 317 322 330 331 332 340 348 344 343 350 355 348 345 351 351 348 354 5 7 5 6 9